Volver al catálogo

HULIANWANG DIGUI-179

ActivoCienciaLEO
NORAD 100204·PAYLOAD·🇨🇳 China

Lanzado Aug 4, 2026 desde Wenchang Space Launch Site

Loading…

Próximos Pases (próximas 24 horas)

TLE

ActualizadoSource: Space-Track

Época: Sep 14, 2026, 22:08 UTC

1 A0204U 26176B   26257.92274932 -.00000089  00000-0  75906-4 0  9997
2 A0204  49.9850 244.1609 0000263 355.0564   5.0306 13.29327799  5559

Sigue HULIANWANG DIGUI-179 en tiempo real con AllMySat

Download on the App Store